Regional Weather Roundup
Issued by NWS

Home | Current Version | Previous Version | Graphics & Text | Print | Product List | Glossary On
Versions: 1 2 3 4 5 6 7 8 9 10 11 12 13 14 15 16 17 18 19 20 21 22 23 24 25 26 27 28 29 30 31 32 33 34 35 36 37 38 39 40 41 42 43 44 45 46 47 48 49 50
000
ASUS45 KCYS 271510
RWRWY

WYOMING REGIONAL WEATHER ROUNDUP
NATIONAL WEATHER SERVICE CHEYENNE WY
900 AM MDT TUE JUN 27 2017

NOTE:  "FAIR" INDICATES FEW OR NO CLOUDS BELOW 12,000 FEET
WITH NO SIGNIFICANT WEATHER AND/OR OBSTRUCTIONS TO VISIBILITY.

WYZ001-271600-
YELLOWSTONE NATIONAL PARK

CITY           SKY/WX    TMP DP  RH WIND       PRES   REMARKS
LK YELLOWSTONE   N/A     52  42  69 W13G24    30.14R
W YELLOWSTONE  NOT AVBL

$$
WYZ002>013-054>058-071-098>099-271600-
NORTHERN WYOMING

CITY           SKY/WX    TMP DP  RH WIND       PRES   REMARKS
JACKSON        SUNNY     61  52  72 CALM      30.04F
CODY           FAIR      67  46  47 SE9       29.88F
GREYBULL       FAIR      70  38  31 W6        29.80S
WORLAND        FAIR      76  45  33 N10       29.83R
SHERIDAN       FAIR      71  53  52 N3        29.77F
BUFFALO        FAIR      73  41  31 W10       29.83F
GILLETTE       FAIR      76  46  34 NW9       29.79F
NEWCASTLE      FAIR      70  54  56 SE12      29.83F

$$
WYZ014>020-022>026-101>103-271600-
CENTRAL WYOMING

CITY           SKY/WX    TMP DP  RH WIND       PRES   REMARKS
BIG PINEY      PTSUNNY   65  38  36 NW9       30.09F
PINEDALE       PTSUNNY   63  41  45 NW10G17   30.10S
DUBOIS         FAIR      52  45  76 NW6       30.06S
LANDER         FAIR      70  45  40 SE3       29.96S
RIVERTON       FAIR      71  41  33 NW31G51   29.93S
CASPER         FAIR      78  40  25 SW18      29.89R
DOUGLAS        FAIR      67  55  65 SE5       29.87S

$$
WYZ021-027>030-104>119-271600-
SOUTHERN WYOMING

CITY           SKY/WX    TMP DP  RH WIND       PRES   REMARKS
EVANSTON       FAIR      65  45  48 N20       30.16R
KEMMERER         N/A     61  39  44 W20G29    30.16R
FORT BRIDGER   FAIR      68  41  36 NW23G29   30.16R
ROCK SPRINGS   FAIR      69  35  28 W8        30.06R
DIXON          FAIR      73  36  26 CALM      30.06S
RAWLINS        FAIR      70  33  25 NW6       30.03S
SARATOGA       FAIR      70  32  24 SE15G23   30.05F
LARAMIE        FAIR      72  34  24 S13       30.07F
CHEYENNE       FAIR      72  50  45 SW5       29.99F
TORRINGTON     FAIR      71  56  58 SE15      29.85F
PINE BLUFFS    FAIR      66  54  63 S7        29.95F

$$



USA.gov is the U.S. government's official web portal to all federal, state and local government web resources and services.